Regional Weather Roundup
Issued by NWS

Home | Current Version | Previous Version | Text Only | Print | Product List | Glossary On
Versions: 1 2 3 4 5 6 7 8 9 10 11 12 13 14 15 16 17 18 19 20 21 22 23 24 25 26 27 28 29 30 31 32 33 34 35 36 37 38 39 40 41 42 43 44 45 46 47 48 49 50
000
ASUS44 KFWD 162115
RWRTX
NORTH TEXAS HOURLY WEATHER ROUNDUP
NATIONAL WEATHER SERVICE FORT WORTH TX
400 PM CDT TUE SEP 16 2014

NOTE: "FAIR" INDICATES FEW OR NO CLOUDS BELOW 12,000 FEET WITH NO
SIGNIFICANT WEATHER AND/OR OBSTRUCTIONS TO VISIBILITY.

TXZ118-119-162200-
DALLAS/FORT WORTH METROPLEX

CITY           SKY/WX    TMP DP  RH WIND       PRES   REMARKS
DFW AIRPORT    CLOUDY    90  67  46 NE6       30.01F HX  93
DALLAS LOVE    CLOUDY    91  66  43 VRB3      30.01F HX  93
FTW MEACHAM    PTSUNNY   89  67  47 E5        30.01F HX  92
DAL-EXECUTIVE  PTSUNNY   91  67  44 CALM      30.01F HX  94
FTW-ALLIANCE   PTSUNNY   89  65  44 SE7       30.00F HX  91
FTW-NAS-JRB    PTSUNNY   92  67  43 S7        30.05F HX  95
FTW-SPINKS     MOSUNNY   90  66  45 E9        30.04F HX  92
ARLINGTON      PTSUNNY   89  67  47 NE6       30.02F HX  92
GRAND PRAIRIE  SUNNY     88  66  48 MISG      30.03F HX  90
ADDISON        CLOUDY    88  64  45 E6        30.03F
MESQUITE         N/A     91  64  40 E3        30.01F HX  93
LANCASTER      PTSUNNY   88  66  47 NE5       30.02F HX  90
$$

TXZ091>094-102>105-117-120-121-131>134-162200-
NORTH CENTRAL TEXAS

CITY           SKY/WX    TMP DP  RH WIND       PRES   REMARKS
SHRMAN/DENISON PTSUNNY   88  68  51 S6        30.04F HX  91
GAINESVILLE    PTSUNNY   86  68  53 S5        30.06F
BOWIE          PTSUNNY   87  66  50 SE5       30.04F
BRIDGEPORT     CLOUDY    88  65  46 NE7       30.05F
DECATUR        PTSUNNY   85  66  53 E8        30.04F
DENTON         PTSUNNY   89  65  44 SE8       30.01F HX  91
MCKINNEY       PTSUNNY   90  67  46 SE7       30.02F HX  93
GREENVILLE     PTSUNNY   88  64  45 E3        30.02F
ROCKWALL       PTSUNNY   89  67  49 CALM      30.00F HX  92
TERRELL        PTSUNNY   91  66  43 E7        30.02F HX  93
WAXAHACHIE     CLOUDY    87  64  45 E3        30.03F
CLEBURNE       PTSUNNY   88  72  58 E9        30.04F HX  94
GRANBURY       PTSUNNY   91  66  44 E6        30.02F HX  93
$$

TXZ083>090-098>101-113>116-127>130-139>142-154-155-162200-
WESTERN NORTH TEXAS

CITY           SKY/WX    TMP DP  RH WIND       PRES   REMARKS
WICHITA FALLS  PTSUNNY   88  67  49 SE9       30.02F HX  91
WF-KICKAPOO    PTSUNNY   90  63  41 SE5       30.04F HX  90
VERNON         CLOUDY    88  64  45 SE5       30.05F
ABILENE        CLOUDY    87  63  44 SE7       30.06F
ABILENE-DYESS  PTSUNNY   87  64  46 SE5       30.05F
BRECKENRIDGE   CLOUDY    89  63  41 E7        30.03F HAZE    HX  90
GRAHAM         MOSUNNY   90  63  40 NE7       30.01F HX  90
MINERAL WELLS  PTSUNNY   90  63  40 E8        30.01F HX  91
STEPHENVILLE   PTSUNNY   87  65  48 N6        30.06F
COMANCHE         N/A     91  64  39 E5        30.04F HX  93
BROWNWOOD      LGT RAIN  90  64  43 N7        30.03F HX  91
COLEMAN        CLOUDY    88  60  38 CALM      30.06F
$$

TXZ143>147-156>162-174-175-162200-
CENTRAL TEXAS

CITY           SKY/WX    TMP DP  RH WIND       PRES   REMARKS
WACO           LGT RAIN  81  71  71 NE9       30.01F
WACO-TSTC      PTSUNNY   81  72  74 NE7       30.01F
WACO-MCGREGOR  CLOUDY    82  66  57 NE10      30.02S
HILLSBORO      PTSUNNY   84  70  62 CALM      30.03F
CORSICANA      CLOUDY    90  70  51 VRB5      30.02F HX  95
MEXIA          CLOUDY    84  72  68 NE6       30.00F
HEARNE           N/A     90  72  54 NE8       29.97F HX  97
CAMERON        MOSUNNY   91  68  47 SE7       29.97S HX  95
TEMPLE         CLOUDY    95  68  41 N12       29.98F HX  99
KILLEEN        PTSUNNY   91  70  49 N5        29.99F HX  97
KILLEEN-SKYLRK PTSUNNY   90  70  51 N15       29.99F HX  95
FORT HOOD      PTSUNNY   91  70  49 N13       29.99F HX  97
GATESVILLE     CLOUDY    81  72  74 NE8       30.04F
HAMILTON       CLOUDY    89  65  44 E5        30.04F HX  91
LAMPASAS       PTSUNNY   91  72  53 NE9       30.00F HX  97
$$

TXZ095>097-106>112-122>126-135>138-148>153-164>167-162200-
EAST TEXAS

CITY           SKY/WX    TMP DP  RH WIND       PRES   REMARKS
PARIS          PTSUNNY   86  66  51 E5        30.04F
SULPHUR SPRNGS PTSUNNY   88  68  51 E6        30.04F HX  91
MOUNT PLEASANT PTSUNNY   87  69  54 N5        30.03F HX  91
GILMER         PTSUNNY   90  72  55 E5        30.03F HX  96
MINEOLA        PTSUNNY   90  68  48 CALM      30.02F HX  93
TYLER          PTSUNNY   89  70  53 E8        30.02F HX  94
LONGVIEW       PTSUNNY   90  68  48 NE6       30.01F HX  94
MARSHALL       MOSUNNY   91  69  48 NE3       30.03F HX  96
ATHENS         PTSUNNY   86  70  58 NE7       30.00F HX  90
PALESTINE      CLOUDY    88  73  60 E5        30.01F HX  95
JACKSONVILLE   PTSUNNY   88  70  55 NE6       30.04F HX  93
HENDERSON      PTSUNNY   87  69  54 NE7       30.03F HX  91
NACOGDOCHES    MOSUNNY   90  72  55 NE6       30.00F HX  96
LUFKIN         MOSUNNY   93  72  50 E6        29.98F HX 101
$$

SUPPLEMENTAL OBSERVATIONS (CENTRAL)

CITY           SKY/WX    TMP DP  RH WIND       PRES   REMARKS
LAKE TEXOMA      N/A     84  66  54 E5          N/A
CADDO GRASSLND   N/A     88  70  55 S5          N/A  HX  92
PAT MAYSE LAKE   N/A     88  70  55 SE3         N/A  HX  92
GREENVILLE       N/A     88  68  51 E6          N/A  HX  91
CEDAR HILL       N/A     91  68  46 NE1         N/A  HX  95
ATHENS           N/A     88  70  55 E5          N/A  HX  92
PALESTINE        N/A     88  72  58 E2          N/A  HX  94
LAKE LIMESTONE   N/A     90  68  48 NE10        N/A  HX  93
MCGREGOR         N/A     81  72  74 N8          N/A
TEMPLE           N/A     91  68  46 NE15        N/A  HX  95
$$

SUPPLEMENTAL OBSERVATIONS (WEST)

CITY           SKY/WX    TMP DP  RH WIND       PRES   REMARKS
MILLERS CREEK    N/A     91  73  55 N2          N/A  HX 100
POSSUM KINGDOM   N/A     90  61  37 SE5         N/A
LBJ GRASSLAND    N/A     88  68  51 NE3         N/A  HX  91
GRANBURY         N/A     90  64  43 E6          N/A  HX  91
HAMBY            N/A     88  64  45 NE5         N/A
IVIE RESERVOIR   N/A     88  64  45 SE6         N/A
COLORADO BEND    N/A     88  66  48 NE9         N/A  HX  90
$$

SUPPLEMENTAL OBSERVATIONS (EAST)

CITY           SKY/WX    TMP DP  RH WIND       PRES   REMARKS
CADDO LAKE       N/A     91  70  49 NE3         N/A  HX  97
LUFKIN           N/A     91  70  49 MISG        N/A  HX  97
N SABINE NF      N/A     91  75  59 MISG        N/A  HX 102
$$

SUPPLEMENTAL OBSERVATIONS ARE A COLLECTION OF AUTOMATED INSTRUMENTS
THAT ARE MAINTAINED BY A VARIETY OF FEDERAL AND STATE AGENCIES.
CERTAIN ELEMENTS...SUCH AS HUMIDITY VALUES AND SUSTAINED WIND
SPEEDS...MAY BE APPROXIMATED.




USA.gov is the U.S. government's official web portal to all federal, state and local government web resources and services.